[[{"header":{"parameterUnit":"m.s-1","parameterCategory":1,"la1":30.2991,"la2":30.254,"lo1":-89.0895,"lo2":-89.0444,"dy":0.0017,"dx":0.0017,"nx":28,"ny":28,"refTime":"2025-08-06T21:00:00:Z","depth":0,"parameterNumber":2,"parameterNumberName":"U-component_of_WINDS"},"data":[0,0,0,0,0,0,0,0,0,0,0,0,0,0,0,0,0,0,0,0,0,0,0,0,0,0,0,0,0,0,0,0,0,0,0,0,0,0,0,0,0,0,0,0,0,0,0,0,0,0,0,0,0,0,0,0,0,0,-1.3095,-1.3096,0,-1.3202,-1.3203,-1.3205,-1.3218,-1.3217,-1.3216,-1.3215,-1.3326,-1.333,-1.3334,0,0,0,0,0,0,0,0,0,0,0,0,0,-1.2902,-1.2905,-1.3095,-1.3096,-1.3098,-1.3202,-1.3203,-1.3205,-1.3219,-1.3217,-1.3216,-1.3215,-1.3325,-1.333,-1.3334,0,0,0,0,0,0,0,0,0,0,0,0,0,-1.2995,-1.2906,-1.3095,-1.3117,-1.312,-1.3202,-1.3203,-1.3205,-1.3219,-1.3217,-1.3216,-1.3214,-1.3324,-1.3329,-1.3335,-1.3402,0,0,-1.3353,-1.3356,0,0,0,0,0,0,0,0,-1.299,-1.3002,-1.3112,-1.3116,-1.3119,-1.3195,-1.3176,-1.3271,-1.3219,-1.3181,-1.3215,-1.3214,-1.3284,-1.3293,-1.3317,-1.3407,-1.3412,-1.3353,-1.3357,-1.336,-1.3361,0,0,0,0,0,0,0,-1.2983,-1.2997,-1.3137,-1.3114,-1.3118,-1.3121,-1.3133,-1.3194,-1.324,-1.3185,-1.3186,-1.3198,-1.3286,-1.3311,-1.3319,-1.3414,-1.3353,-1.3359,-1.3362,-1.3364,-1.3562,-1.3563,0,0,0,0,0,0,-1.2972,-1.2992,-1.3134,-1.3141,-1.3049,-1.3126,-1.3139,-1.3172,-1.324,-1.3248,-1.32,-1.3199,-1.3302,-1.3312,-1.3323,-1.3404,-1.336,-1.3365,-1.3368,-1.356,-1.3562,-1.3564,0,0,0,0,0,0,-1.2968,-1.2985,-1.313,-1.3067,-1.3085,-1.3131,-1.3169,-1.3175,-1.3201,-1.3251,-1.3259,-1.3217,-1.3301,-1.3315,-1.3382,-1.3409,-1.3368,-1.3373,-1.3558,-1.3561,-1.3563,-1.3568,0,0,0,0,0,0,-1.2963,-1.2983,-1.301,-1.3067,-1.3089,-1.3187,-1.317,-1.3179,-1.3211,-1.321,-1.3269,-1.3278,-1.3301,-1.3373,-1.3387,-1.3416,-1.3378,-1.3556,-1.3559,-1.3562,-1.3566,-1.3571,-1.3575,0,0,0,0,0,-1.2956,-1.3008,-1.3011,-1.3028,-1.3122,-1.3188,-1.32,-1.3226,-1.3213,-1.3239,-1.3271,-1.3276,-1.3403,-1.338,-1.3396,-1.3427,-1.3554,-1.3558,-1.3562,-1.3564,-1.357,-1.3575,0,0,0,0,0,0,-1.2954,-1.3016,-1.302,-1.3092,-1.3135,-1.319,-1.3225,-1.3232,-1.3279,-1.3277,-1.3306,-1.332,-1.3384,-1.3412,-1.3385,-1.3494,-1.3477,-1.3485,-1.3473,-1.3479,-1.3483,-1.3475,-1.3382,0,0,0,0,0,-1.2961,-1.301,-1.3061,-1.312,-1.3141,-1.3179,-1.3209,-1.3224,-1.3269,-1.3288,-1.3324,-1.3368,-1.3418,-1.345,-1.3499,-1.357,-1.3582,-1.3599,-1.3603,-1.3607,-1.3613,-1.365,-1.3657,-1.3577,-1.3577,-1.3577,0,0,-1.2978,-1.3018,-1.3047,-1.3121,-1.3155,-1.3204,-1.3194,-1.3247,-1.3283,-1.3296,-1.336,-1.3388,-1.3439,-1.3508,-1.354,-1.3533,-1.3637,-1.3611,-1.3614,-1.3618,-1.3655,-1.3662,-1.3669,-1.3579,-1.3579,-1.3578,0,0,-1.3034,-1.3069,-1.3121,-1.3155,-1.3207,-1.3232,-1.3244,-1.3298,-1.3317,-1.3382,-1.3392,-1.3435,-1.3521,-1.3556,-1.3585,-1.365,-1.3656,-1.3665,-1.3689,-1.3725,-1.3731,-1.3737,-1.3759,-1.3766,-1.3671,-1.3671,-1.3671,0,-1.3049,-1.3122,-1.3147,-1.3198,-1.323,-1.3242,-1.3294,-1.3326,-1.3392,-1.3413,-1.3404,-1.351,-1.3545,-1.362,-1.3636,-1.366,-1.3674,-1.3659,-1.3728,-1.3734,-1.374,-1.3761,-1.3769,-1.3672,-1.3672,-1.3672,-1.3672,0,-1.3137,-1.3187,-1.3223,-1.3284,-1.332,-1.3371,-1.3403,-1.3435,-1.3447,-1.3472,-1.3537,-1.3579,-1.3635,-1.3654,-1.3667,-1.3731,-1.3725,-1.3722,-1.3706,-1.3748,-1.3768,-1.3776,-1.3673,-1.3673,-1.3672,-1.3672,0,0,-1.3196,-1.3268,-1.3281,-1.3308,-1.3364,-1.3404,-1.3455,-1.3509,-1.3536,-1.358,-1.3622,-1.3693,-1.3689,-1.3722,-1.3739,-1.377,-1.3817,-1.3763,-1.3764,-1.377,-1.3888,-1.3889,-1.3899,-1.3821,-1.3822,-1.3824,-1.3883,0,-1.3257,-1.3348,-1.3371,-1.3448,-1.3494,-1.3506,-1.355,-1.3589,-1.3613,-1.3655,-1.3682,-1.3731,-1.3723,-1.3743,-1.3775,-1.3804,-1.3841,-1.3801,-1.386,-1.3862,-1.3846,-1.391,-1.3912,-1.3966,-1.3891,-1.3893,-1.3894,0,-1.3342,-1.3385,-1.3467,-1.3516,-1.3536,-1.3575,-1.3625,-1.3666,-1.3709,-1.3725,-1.376,-1.3772,-1.3825,-1.3806,-1.3878,-1.385,-1.3875,-1.3893,-1.3896,-1.3902,-1.388,-1.3917,-1.3985,-1.3992,-1.3907,-1.3906,-1.3905,0,-1.3374,-1.3454,-1.3513,-1.3536,-1.3594,-1.3621,-1.3647,-1.3689,-1.3719,-1.3763,-1.3782,-1.3832,-1.3859,-1.3896,-1.3921,-1.3905,-1.399,-1.3974,-1.4004,-1.4003,-1.4021,-1.402,-1.4093,-1.4039,-1.4039,-1.4038,-1.4038,0,-1.344,-1.349,-1.3528,-1.3564,-1.3619,-1.3644,-1.3697,-1.3723,-1.376,-1.3801,-1.3814,-1.3851,-1.3882,-1.3924,-1.3944,-1.3999,-1.4012,-1.4025,-1.403,-1.4024,-1.4022,-1.4041,-1.4037,-1.4041,-1.404,-1.404,-1.4039,0,-1.3487,-1.3515,-1.3579,-1.3628,-1.3641,-1.368,-1.3721,-1.3756,-1.378,-1.3831,-1.3844,-1.3881,-1.393,-1.3959,-1.4022,-1.4035,-1.4096,-1.4099,-1.4081,-1.4083,-1.411,-1.4107,-1.4198,-1.4211,-1.4148,-1.4149,-1.4149,0,-1.3527,-1.3565,-1.3617,-1.3644,-1.367,-1.3715,-1.3745,-1.377,-1.3801,-1.3852,-1.388,-1.393,-1.3971,-1.4049,-1.4082,-1.4129,-1.4133,-1.4162,-1.4141,-1.4132,-1.4132,-1.4129,-1.4132,-1.4165,-1.4166,-1.4166,-1.4167,0,-1.3594,-1.3605,-1.3648,-1.3695,-1.373,-1.3769,-1.3807,-1.3829,-1.386,-1.3894,-1.3944,-1.3976,-1.4038,-1.4087,-1.4137,-1.4163,-1.417,-1.4173,-1.4182,-1.4176,-1.4163,-1.4169,-1.409,-1.4171,-1.4171,-1.417,-1.417,-1.417,-1.3638,-1.3671,-1.3712,-1.3759,-1.379,-1.3824,-1.3859,-1.3886,-1.3928,-1.398,-1.3992,-1.4044,-1.4085,-1.4152,-1.4178,-1.4219,-1.4214,-1.4228,-1.4231,-1.4234,-1.4234,-1.4157,-1.4228,-1.4228,-1.4228,-1.4228,-1.4228,0,-1.3705,-1.3731,-1.3774,-1.3826,-1.3862,-1.3864,-1.3906,-1.3936,-1.3981,-1.4018,-1.4058,-1.4114,-1.4161,-1.4195,-1.4243,-1.4269,-1.4273,-1.428,-1.4278,-1.4284,-1.4236,-1.4223,-1.4276,-1.4276,-1.4276,-1.4276,-1.4276,-1.4276,-1.3744,-1.38,-1.3815,-1.3886,-1.3912,-1.3962,-1.3985,-1.4017,-1.4046,-1.4108,-1.4146,-1.4168,-1.4204,-1.4254,-1.4296,-1.4305,-1.4321,-1.4328,-1.4337,-1.4293,-1.4287,-1.4282,-1.427,-1.4332,-1.4332,-1.4381,-1.4382,-1.4382]},{"header":{"parameterUnit":"m.s-1","parameterCategory":1,"la1":30.2991,"la2":30.254,"lo1":-89.0895,"lo2":-89.0444,"dy":0.0017,"dx":0.0017,"nx":28,"ny":28,"refTime":"2025-08-06T21:00:00:Z","depth":0,"parameterNumber":3,"parameterNumberName":"V-component_of_WINDS"},"data":[0,0,0,0,0,0,0,0,0,0,0,0,0,0,0,0,0,0,0,0,0,0,0,0,0,0,0,0,0,0,0,0,0,0,0,0,0,0,0,0,0,0,0,0,0,0,0,0,0,0,0,0,0,0,0,0,0,0,-1.2731,-1.2728,0,-1.2532,-1.253,-1.2527,-1.2424,-1.2423,-1.2423,-1.2423,-1.2214,-1.2208,-1.2203,0,0,0,0,0,0,0,0,0,0,0,0,0,-1.3011,-1.3007,-1.2731,-1.2728,-1.2726,-1.2532,-1.253,-1.2527,-1.2424,-1.2423,-1.2423,-1.2423,-1.2216,-1.2209,-1.2203,0,0,0,0,0,0,0,0,0,0,0,0,0,-1.2859,-1.3005,-1.2731,-1.2651,-1.2642,-1.2533,-1.2529,-1.2526,-1.2424,-1.2423,-1.2423,-1.2423,-1.2218,-1.221,-1.2202,-1.2155,0,0,-1.2177,-1.2173,0,0,0,0,0,0,0,0,-1.2868,-1.2848,-1.2665,-1.2656,-1.2646,-1.2502,-1.2552,-1.2402,-1.2424,-1.2506,-1.2423,-1.2423,-1.231,-1.2294,-1.2257,-1.2145,-1.2137,-1.2176,-1.2171,-1.2167,-1.2165,0,0,0,0,0,0,0,-1.2878,-1.2856,-1.2652,-1.2663,-1.2651,-1.2622,-1.26,-1.2523,-1.2411,-1.2499,-1.2491,-1.2469,-1.2304,-1.2265,-1.2251,-1.2133,-1.2176,-1.2169,-1.2164,-1.2161,-1.1968,-1.1968,0,0,0,0,0,0,-1.2903,-1.2866,-1.2658,-1.2646,-1.2759,-1.2617,-1.2593,-1.2549,-1.2412,-1.2391,-1.247,-1.2465,-1.2279,-1.2261,-1.2243,-1.2177,-1.2168,-1.216,-1.2155,-1.1968,-1.1968,-1.1968,0,0,0,0,0,0,-1.2909,-1.2885,-1.2666,-1.2754,-1.2724,-1.2613,-1.2564,-1.2545,-1.2506,-1.239,-1.2369,-1.2451,-1.2278,-1.2255,-1.2177,-1.2168,-1.2156,-1.2149,-1.1969,-1.1968,-1.1968,-1.2046,0,0,0,0,0,0,-1.2918,-1.2888,-1.2872,-1.2754,-1.2719,-1.2606,-1.2563,-1.2541,-1.2492,-1.2485,-1.2366,-1.2346,-1.2276,-1.219,-1.2169,-1.2157,-1.2142,-1.1969,-1.1968,-1.1968,-1.2043,-1.2048,-1.2052,0,0,0,0,0,-1.2928,-1.2902,-1.2872,-1.2847,-1.2697,-1.2606,-1.2586,-1.2507,-1.2492,-1.2473,-1.2398,-1.235,-1.2173,-1.2183,-1.2158,-1.2143,-1.1969,-1.1969,-1.1968,-1.2041,-1.2047,-1.2052,0,0,0,0,0,0,-1.302,-1.2885,-1.285,-1.2785,-1.2708,-1.2589,-1.2563,-1.2517,-1.2441,-1.2436,-1.234,-1.2314,-1.2244,-1.2186,-1.22,-1.2088,-1.2066,-1.206,-1.213,-1.2134,-1.2138,-1.2153,-1.2136,0,0,0,0,0,-1.3033,-1.2973,-1.2857,-1.2811,-1.2774,-1.2675,-1.2633,-1.2579,-1.2494,-1.246,-1.2379,-1.2297,-1.2222,-1.2175,-1.21,-1.2034,-1.2004,-1.2011,-1.2016,-1.202,-1.2016,-1.1972,-1.1973,-1.1966,-1.1966,-1.1966,0,0,-1.3059,-1.2977,-1.2945,-1.2827,-1.2761,-1.2697,-1.2648,-1.2585,-1.2535,-1.245,-1.2371,-1.2309,-1.221,-1.2137,-1.2101,-1.2086,-1.2011,-1.2019,-1.2023,-1.2017,-1.1972,-1.1972,-1.1973,-1.1966,-1.1966,-1.1966,0,0,-1.3073,-1.3007,-1.2959,-1.2894,-1.2794,-1.2728,-1.2717,-1.2603,-1.2559,-1.2479,-1.2412,-1.2351,-1.2225,-1.2156,-1.2105,-1.2088,-1.204,-1.2066,-1.2089,-1.2047,-1.2048,-1.2048,-1.2039,-1.2037,-1.2063,-1.2063,-1.2063,0,-1.3117,-1.3022,-1.294,-1.2879,-1.2827,-1.2747,-1.2696,-1.2635,-1.2516,-1.248,-1.2466,-1.2303,-1.2232,-1.2139,-1.2135,-1.2097,-1.2078,-1.2079,-1.2055,-1.2054,-1.2052,-1.2043,-1.204,-1.2067,-1.2067,-1.2066,-1.2066,0,-1.3079,-1.3013,-1.2986,-1.2874,-1.2818,-1.2763,-1.2669,-1.2622,-1.2572,-1.2506,-1.2423,-1.2334,-1.2237,-1.2211,-1.2162,-1.2111,-1.2104,-1.2074,-1.2048,-1.2058,-1.2047,-1.2043,-1.2072,-1.2071,-1.207,-1.2069,0,0,-1.3147,-1.2988,-1.2979,-1.2925,-1.2808,-1.2754,-1.2692,-1.2599,-1.256,-1.2479,-1.2422,-1.2316,-1.2285,-1.2227,-1.2168,-1.2132,-1.2121,-1.2105,-1.2101,-1.2109,-1.2054,-1.2077,-1.2074,-1.2088,-1.2087,-1.2086,-1.2062,0,-1.3142,-1.3031,-1.2954,-1.2871,-1.2807,-1.2728,-1.2674,-1.2594,-1.253,-1.2464,-1.2392,-1.2317,-1.2284,-1.2248,-1.2209,-1.2131,-1.2108,-1.2131,-1.2031,-1.2029,-1.2057,-1.2069,-1.2093,-1.2075,-1.2057,-1.2056,-1.2056,0,-1.3123,-1.3046,-1.2957,-1.2843,-1.2813,-1.2766,-1.2672,-1.2611,-1.2517,-1.2472,-1.2406,-1.2345,-1.2272,-1.2254,-1.215,-1.2168,-1.2122,-1.2077,-1.2074,-1.206,-1.2042,-1.2053,-1.2067,-1.2064,-1.2049,-1.2049,-1.205,0,-1.3179,-1.3051,-1.2981,-1.2937,-1.2804,-1.2771,-1.2714,-1.262,-1.2567,-1.2484,-1.2448,-1.2358,-1.2308,-1.2237,-1.2152,-1.2147,-1.2055,-1.2031,-1.2013,-1.2015,-1.1997,-1.1999,-1.2001,-1.1971,-1.1971,-1.1971,-1.1971,0,-1.3181,-1.3129,-1.3003,-1.296,-1.2898,-1.2807,-1.2747,-1.2682,-1.2599,-1.2538,-1.2464,-1.2408,-1.23,-1.223,-1.2163,-1.2085,-1.2063,-1.2022,-1.2005,-1.2028,-1.2033,-1.1996,-1.1994,-1.197,-1.197,-1.197,-1.1971,0,-1.3232,-1.3147,-1.3064,-1.2943,-1.2911,-1.2871,-1.2765,-1.2718,-1.2649,-1.2573,-1.255,-1.2441,-1.2354,-1.2262,-1.2144,-1.2099,-1.2023,-1.1999,-1.2055,-1.2045,-1.2032,-1.2033,-1.2009,-1.1999,-1.1978,-1.1978,-1.1979,0,-1.3239,-1.3197,-1.3072,-1.3027,-1.2971,-1.29,-1.2845,-1.2753,-1.2699,-1.2587,-1.2552,-1.246,-1.2381,-1.2245,-1.2154,-1.2062,-1.2034,-1.2031,-1.202,-1.2043,-1.203,-1.2033,-1.2027,-1.2035,-1.2036,-1.2037,-1.2037,0,-1.3259,-1.3217,-1.3144,-1.3054,-1.2991,-1.2916,-1.2837,-1.2804,-1.2695,-1.2637,-1.2548,-1.2488,-1.2366,-1.2274,-1.217,-1.2107,-1.2052,-1.2042,-1.2032,-1.2055,-1.2088,-1.2067,-1.2064,-1.2042,-1.2042,-1.2042,-1.2041,-1.2041,-1.3285,-1.3243,-1.3148,-1.3066,-1.2997,-1.2925,-1.2873,-1.2797,-1.2722,-1.2617,-1.2567,-1.2477,-1.2378,-1.2234,-1.2172,-1.2097,-1.2081,-1.2069,-1.2065,-1.2063,-1.2067,-1.2101,-1.2078,-1.2078,-1.2078,-1.2077,-1.2077,0,-1.3299,-1.3233,-1.3159,-1.3051,-1.2986,-1.2943,-1.2852,-1.28,-1.2722,-1.2636,-1.256,-1.2455,-1.2365,-1.2265,-1.2168,-1.2127,-1.2099,-1.2104,-1.2105,-1.2091,-1.2089,-1.2105,-1.2128,-1.2128,-1.2128,-1.2128,-1.2128,-1.2128,-1.3298,-1.3223,-1.317,-1.3058,-1.2991,-1.2904,-1.2855,-1.2786,-1.2717,-1.2604,-1.2529,-1.2465,-1.2372,-1.2266,-1.218,-1.2152,-1.2119,-1.2131,-1.2096,-1.2095,-1.2091,-1.2088,-1.2103,-1.2125,-1.2125,-1.2103,-1.2103,-1.2103]}]]